Weather History for PAIN - November, 2011

Change the Weather History Date:

Friday, November 25, 2011

  Actual Average Record
Temperature  
Mean Temperature -22 °F -  
Max Temperature -9 °F 14 °F 43 °F (1992)
Min Temperature -36 °F -1 °F -37 °F (1963)
Degree Days  
Heating Degree Days 88    
Moisture  
Dew Point -34 °F    
Average Humidity 74    
Maximum Humidity 84    
Minimum Humidity 68    
Precipitation  
Precipitation 0.00 in - - ()
Sea Level Pressure  
Sea Level Pressure 29.48 in    
Wind  
Wind Speed 0 mph (NNE)    
Max Wind Speed 8 mph    
Max Gust Speed -    
Visibility 10 miles    
Events      
Averages and records for this station are not official NWS values.
T = Trace of Precipitation, MM = Missing Value Source: NWS Daily Summary

Daily Weather History Graph

Daily Weather History Graph

Search for Another Location

Airport or City:

Trip Planner

Search our weather history database for the weather conditions in past years. The results will help you decide how hot, cold, wet, or windy it might be!

Date:

Astronomy

Nov. 25, 2011 Rise Set
Actual Time 9:51 AM AKST 3:33 PM AKST
Civil Twilight 8:46 AM AKST 4:37 PM AKST
Nautical Twilight 7:44 AM AKST 5:40 PM AKST
Astronomical Twilight 6:47 AM AKST 6:37 PM AKST
Moon 11:05 AM AKST (11/25) 3:35 PM AKST (11/25)
Length of Visible Light 7h 50m
Length of Day
5h 41m
New Moon, 1% of the Moon is Illuminated
Nov 25
New Moon
Dec 2
First Quarter
Dec 10
Full
Dec 17
Last Quarter
Dec 24
New

Hourly Weather History & Observations

Time (AKST) Temp. Windchill Dew Point Humidity Pressure Visibility Wind Dir Wind Speed Gust Speed Precip Events Conditions
12:16 AM -34.6 °F - -41.8 °F 68% 29.35 in 10.0 mi Calm Calm - N/A   Clear
12:36 AM -34.6 °F - -41.8 °F 68% 29.36 in 10.0 mi Calm Calm - N/A   Clear
12:56 AM -34.6 °F - -41.8 °F 68% 29.37 in 10.0 mi Calm Calm - N/A   Clear
1:16 AM -34.6 °F - -41.8 °F 68% 29.37 in 10.0 mi Calm Calm - N/A   Clear
1:36 AM -34.6 °F - -41.8 °F 68% 29.38 in 10.0 mi Calm Calm - N/A   Clear
1:56 AM -34.6 °F - -41.8 °F 68% 29.39 in 10.0 mi Calm Calm - N/A   Clear
2:16 AM -34.6 °F - -41.8 °F 68% 29.39 in 10.0 mi Calm Calm - N/A   Clear
2:36 AM -36.4 °F - -41.8 °F 75% 29.40 in 10.0 mi Calm Calm - N/A   Clear
2:56 AM -34.6 °F - -41.8 °F 68% 29.40 in 10.0 mi Calm Calm - N/A   Clear
3:16 AM -34.6 °F - -41.8 °F 68% 29.41 in 10.0 mi Calm Calm - N/A   Clear
3:36 AM -34.6 °F - -41.8 °F 68% 29.41 in 10.0 mi Calm Calm - N/A   Clear
3:56 AM -34.6 °F - -41.8 °F 68% 29.42 in 10.0 mi Calm Calm - N/A   Clear
4:16 AM -34.6 °F - -41.8 °F 68% 29.42 in 10.0 mi Calm Calm - N/A   Clear
4:36 AM -34.6 °F - -41.8 °F 68% 29.43 in 10.0 mi Calm Calm - N/A   Clear
4:56 AM -34.6 °F - -41.8 °F 68% 29.43 in 10.0 mi Calm Calm - N/A   Clear
5:16 AM -34.6 °F - -41.8 °F 68% 29.43 in 10.0 mi Calm Calm - N/A   Clear
5:36 AM -34.6 °F - -41.8 °F 68% 29.43 in 10.0 mi Calm Calm - N/A   Clear
5:56 AM -34.6 °F - -40.0 °F 75% 29.44 in 10.0 mi Calm Calm - N/A   Clear
6:16 AM -34.6 °F - -40.0 °F 75% 29.44 in 10.0 mi Calm Calm - N/A   Clear
6:36 AM -32.8 °F - -40.0 °F 68% 29.45 in 10.0 mi Calm Calm - N/A   Clear
6:56 AM -32.8 °F - -38.2 °F 75% 29.45 in 10.0 mi Calm Calm - N/A   Mostly Cloudy
7:16 AM -32.8 °F - -38.2 °F 75% 29.46 in 10.0 mi Calm Calm - N/A   Overcast
7:36 AM -32.8 °F - -38.2 °F 75% 29.47 in 10.0 mi Calm Calm - N/A   Mostly Cloudy
7:56 AM -32.8 °F - -38.2 °F 75% 29.47 in 10.0 mi Calm Calm - N/A   Partly Cloudy
8:16 AM -32.8 °F - -40.0 °F 68% 29.49 in 10.0 mi Calm Calm - N/A   Clear
8:36 AM -32.8 °F - -38.2 °F 75% 29.49 in 10.0 mi Calm Calm - N/A   Partly Cloudy
8:56 AM -32.8 °F - -38.2 °F 75% 29.50 in 10.0 mi Calm Calm - N/A   Partly Cloudy
9:16 AM -32.8 °F - -38.2 °F 75% 29.50 in 10.0 mi Calm Calm - N/A   Partly Cloudy
9:36 AM -32.8 °F - -38.2 °F 75% 29.51 in 10.0 mi Calm Calm - N/A   Scattered Clouds
9:56 AM -32.8 °F - -38.2 °F 75% 29.51 in 10.0 mi Calm Calm - N/A   Mostly Cloudy
10:16 AM -32.8 °F - -38.2 °F 75% 29.52 in 10.0 mi Calm Calm - N/A   Scattered Clouds
10:36 AM -32.8 °F - -38.2 °F 75% 29.52 in 10.0 mi Calm Calm - N/A   Clear
10:56 AM -32.8 °F - -36.4 °F 83% 29.52 in 10.0 mi Calm Calm - N/A   Clear
11:16 AM -31.0 °F - -36.4 °F 75% 29.53 in 10.0 mi Calm Calm - N/A   Clear
11:36 AM -29.2 °F - -34.6 °F 75% 29.53 in 10.0 mi Calm Calm - N/A   Clear
11:56 AM -27.4 °F - -34.6 °F 69% 29.54 in 10.0 mi Calm Calm - N/A   Clear
12:16 PM -27.4 °F - -32.8 °F 75% 29.54 in 10.0 mi Calm Calm - N/A   Clear
12:36 PM -27.4 °F - -32.8 °F 75% 29.54 in 10.0 mi Calm Calm - N/A   Clear
12:56 PM -25.6 °F - -31.0 °F 76% 29.55 in 10.0 mi Calm Calm - N/A   Scattered Clouds
1:16 PM -25.6 °F - -31.0 °F 76% 29.54 in 10.0 mi Calm Calm - N/A   Scattered Clouds
1:36 PM -23.8 °F - -29.2 °F 76% 29.55 in 10.0 mi Calm Calm - N/A   Mostly Cloudy
1:56 PM -23.8 °F - -27.4 °F 83% 29.54 in 10.0 mi Calm Calm - N/A   Overcast
2:16 PM -22.0 °F - -25.6 °F 83% 29.55 in 10.0 mi Calm Calm - N/A   Overcast
2:36 PM -20.2 °F - -25.6 °F 76% 29.55 in 10.0 mi Calm Calm - N/A   Overcast
2:56 PM -20.2 °F - -23.8 °F 83% 29.55 in 10.0 mi Calm Calm - N/A   Overcast
3:16 PM -18.4 °F - -23.8 °F 76% 29.54 in 10.0 mi Calm Calm - N/A   Overcast
3:36 PM -18.4 °F - -22.0 °F 84% 29.55 in 10.0 mi Calm Calm - N/A   Overcast
3:56 PM -16.6 °F - -20.2 °F 84% 29.55 in 10.0 mi Calm Calm - N/A   Overcast
4:16 PM -16.6 °F - -20.2 °F 84% 29.55 in 10.0 mi Calm Calm - N/A   Overcast
4:36 PM -14.8 °F - -18.4 °F 84% 29.55 in 10.0 mi Calm Calm - N/A   Overcast
4:56 PM -13.0 °F - -16.6 °F 84% 29.56 in 10.0 mi Calm Calm - N/A   Overcast
5:16 PM -11.2 °F -23.0 °F -14.8 °F 84% 29.56 in 5.0 mi North 4.6 mph - N/A   Overcast
5:36 PM -9.4 °F -24.3 °F -14.8 °F 77% 29.56 in 4.0 mi North 6.9 mph - N/A   Overcast
5:56 PM -9.4 °F -22.7 °F -14.8 °F 77% 29.57 in 3.0 mi NNE 5.8 mph - N/A   Overcast
6:16 PM -9.4 °F -25.6 °F -14.8 °F 77% 29.57 in 3.0 mi NNE 8.1 mph - N/A   Overcast
6:36 PM -9.4 °F -22.7 °F -14.8 °F 77% 29.57 in 1.8 mi NNE 5.8 mph - N/A   Overcast
6:56 PM -9.4 °F -26.8 °F -14.8 °F 77% 29.58 in 2.5 mi NNE 9.2 mph - N/A   Overcast
7:16 PM -9.4 °F -25.6 °F -14.8 °F 77% 29.58 in 3.0 mi NNE 8.1 mph - N/A   Overcast
7:36 PM -9.4 °F -24.3 °F -14.8 °F 77% 29.58 in 3.0 mi NNE 6.9 mph - N/A   Overcast
7:56 PM -9.4 °F -20.9 °F -14.8 °F 77% 29.58 in 3.0 mi North 4.6 mph - N/A   Overcast
8:16 PM -9.4 °F -24.3 °F -14.8 °F 77% 29.59 in 4.0 mi NNE 6.9 mph - N/A   Overcast
8:36 PM -9.4 °F -22.7 °F -14.8 °F 77% 29.59 in 3.0 mi NNE 5.8 mph - N/A   Overcast
8:56 PM -9.4 °F -26.8 °F -14.8 °F 77% 29.60 in 5.0 mi NNE 9.2 mph - N/A   Overcast
9:16 PM -9.4 °F -26.8 °F -14.8 °F 77% 29.60 in 5.0 mi NNE 9.2 mph - N/A   Overcast
9:36 PM -9.4 °F -25.6 °F -14.8 °F 77% 29.60 in 6.0 mi NNE 8.1 mph - N/A   Overcast
9:56 PM -11.2 °F -27.8 °F -14.8 °F 84% 29.61 in 9.0 mi NNE 8.1 mph - N/A   Overcast
10:16 PM -9.4 °F -22.7 °F -14.8 °F 77% 29.61 in 10.0 mi North 5.8 mph - N/A   Overcast
10:36 PM -9.4 °F -24.3 °F -14.8 °F 77% 29.61 in 6.0 mi North 6.9 mph - N/A   Overcast
10:56 PM -9.4 °F -18.6 °F -14.8 °F 77% 29.61 in 4.0 mi North 3.5 mph - N/A   Overcast
11:16 PM -9.4 °F -18.6 °F -14.8 °F 77% 29.62 in 5.0 mi North 3.5 mph - N/A   Overcast
11:36 PM -9.4 °F -18.6 °F -14.8 °F 77% 29.62 in 3.0 mi NNW 3.5 mph - N/A   Overcast
11:56 PM -9.4 °F -20.9 °F -14.8 °F 77% 29.62 in 4.0 mi North 4.6 mph - N/A   Overcast